Ithaca, NY

9:30 PM EDT on September 24, 2016 (GMT -0400)
Tompkins County

Weather History for KITH - October, 2013

Change the Weather History Date:

Friday, October 18, 2013

  Actual Average Record
Temperature  
Mean Temperature 48 °F -  
Max Temperature 59 °F 57 °F 82 °F (1938)
Min Temperature 37 °F 39 °F 22 °F (1978)
Degree Days  
Heating Degree Days 17    
Moisture  
Dew Point 44 °F    
Average Humidity 79    
Maximum Humidity 100    
Minimum Humidity 49    
Precipitation  
Precipitation 0.00 in - - ()
Sea Level Pressure  
Sea Level Pressure 29.86 in    
Wind  
Wind Speed 9 mph (West)    
Max Wind Speed 20 mph    
Max Gust Speed 25 mph    
Visibility 10 miles    
Events Rain    
Averages and records for this station are not official NWS values.
T = Trace of Precipitation, MM = Missing Value Source: NWS Daily Summary

Daily Weather History Graph

Daily Weather History Graph

Search for Another Location

Airport or City:

Trip Planner

Search our weather history database for the weather conditions in past years. The results will help you decide how hot, cold, wet, or windy it might be!

Date:

Astronomy

Oct. 18, 2013 Rise Set
Actual Time 7:22 AM EDT 6:18 PM EDT
Civil Twilight 6:54 AM EDT 6:47 PM EDT
Nautical Twilight 6:21 AM EDT 7:19 PM EDT
Astronomical Twilight 5:48 AM EDT 7:52 PM EDT
Moon 6:06 PM EDT (10/18) 6:55 AM EDT (10/18)
Length of Visible Light 11h 52m
Length of Day
10h 55m
Full, 100% of the Moon is Illuminated
Oct 18
Full
Oct 18
Full
Oct 26
Last Quarter
Nov 3
New
Nov 10
First Quarter

Hourly Weather History & Observations

Time (EDT) Temp. Dew Point Humidity Pressure Visibility Wind Dir Wind Speed Gust Speed Precip Events Conditions
12:56 AM 52.0 °F 50.9 °F 96% 29.74 in 10.0 mi SW 5.8 mph - N/A   Overcast
1:37 AM 51.8 °F 51.8 °F 100% 29.75 in 9.0 mi West 11.5 mph - 0.00 in Rain Light Rain
1:46 AM 51.8 °F 51.8 °F 100% 29.76 in 10.0 mi West 10.4 mph - 0.00 in Rain Light Rain
1:56 AM 52.9 °F 50.9 °F 93% 29.76 in 7.0 mi WNW 8.1 mph - 0.00 in Rain Light Rain
2:14 AM 51.8 °F 50.0 °F 94% 29.77 in 10.0 mi WNW 10.4 mph - 0.00 in Rain Light Rain
2:29 AM 51.8 °F 48.2 °F 88% 29.77 in 10.0 mi West 11.5 mph - 0.00 in   Overcast
2:37 AM 51.8 °F 48.2 °F 88% 29.78 in 10.0 mi WNW 9.2 mph - 0.00 in   Overcast
2:56 AM 52.0 °F 46.9 °F 83% 29.78 in 10.0 mi West 13.8 mph 19.6 mph 0.00 in Rain Light Rain
3:56 AM 50.0 °F 45.0 °F 83% 29.78 in 10.0 mi West 11.5 mph - 0.00 in   Scattered Clouds
4:56 AM 47.8 °F 45.0 °F 90% 29.80 in 10.0 mi WSW 6.9 mph - N/A   Mostly Cloudy
5:56 AM 48.9 °F 45.0 °F 86% 29.81 in 10.0 mi SW 4.6 mph - N/A   Overcast
6:09 AM 48.2 °F 44.6 °F 87% 29.81 in 10.0 mi WSW 5.8 mph - N/A   Mostly Cloudy
6:56 AM 48.9 °F 43.9 °F 83% 29.83 in 10.0 mi WSW 6.9 mph - N/A   Mostly Cloudy
7:56 AM 48.9 °F 43.0 °F 80% 29.85 in 10.0 mi SW 4.6 mph - N/A   Mostly Cloudy
8:56 AM 50.9 °F 43.9 °F 77% 29.87 in 10.0 mi WSW 8.1 mph - N/A   Mostly Cloudy
9:56 AM 54.0 °F 41.0 °F 62% 29.90 in 10.0 mi West 15.0 mph - N/A   Scattered Clouds
10:56 AM 55.9 °F 39.9 °F 55% 29.92 in 10.0 mi West 13.8 mph - N/A   Mostly Cloudy
11:56 AM 54.9 °F 38.8 °F 55% 29.92 in 10.0 mi West 19.6 mph 25.3 mph N/A   Mostly Cloudy
12:56 PM 57.9 °F 38.8 °F 49% 29.92 in 10.0 mi WNW 11.5 mph - N/A   Mostly Cloudy
1:56 PM 56.8 °F 41.0 °F 55% 29.91 in 10.0 mi WNW 10.4 mph - N/A   Mostly Cloudy
2:56 PM 55.9 °F 39.9 °F 55% 29.92 in 10.0 mi West 16.1 mph - N/A   Overcast
3:56 PM 55.9 °F 41.0 °F 57% 29.93 in 10.0 mi West 13.8 mph 19.6 mph N/A   Overcast
4:56 PM 54.9 °F 39.9 °F 57% 29.93 in 10.0 mi West 11.5 mph - N/A   Scattered Clouds
5:56 PM 52.9 °F 41.9 °F 66% 29.93 in 10.0 mi West 6.9 mph - N/A   Scattered Clouds
6:56 PM 52.9 °F 41.0 °F 64% 29.94 in 10.0 mi West 5.8 mph - N/A   Mostly Cloudy
7:56 PM 45.9 °F 41.9 °F 86% 29.96 in 10.0 mi Calm Calm - N/A   Partly Cloudy
8:56 PM 41.9 °F 39.9 °F 93% 29.96 in 10.0 mi Calm Calm - N/A   Clear
9:56 PM 39.9 °F 39.9 °F 100% 29.97 in 10.0 mi Calm Calm - N/A   Clear
10:56 PM 39.9 °F 38.8 °F 96% 29.97 in 9.0 mi Calm Calm - N/A   Clear
11:56 PM 37.9 °F 37.9 °F 100% 29.97 in 10.0 mi Calm Calm - N/A   Clear